Year,Month,Day,Hour,Minute,Value (Times are PST for temperature in C)
2007,03,25,00,05,5.40
2007,03,25,00,10,5.20
2007,03,25,00,15,5.10
2007,03,25,00,20,4.90
2007,03,25,00,25,4.90
2007,03,25,00,30,4.90
2007,03,25,00,35,4.90
2007,03,25,00,40,4.90
2007,03,25,00,45,4.90
2007,03,25,00,50,4.70
2007,03,25,00,55,4.60
2007,03,25,01,00,4.40
2007,03,25,01,05,4.40
2007,03,25,01,10,4.40
2007,03,25,01,15,4.30
2007,03,25,01,20,4.20
2007,03,25,01,25,4.00
2007,03,25,01,30,3.80
2007,03,25,01,35,3.80
2007,03,25,01,40,3.80
2007,03,25,01,45,3.80
2007,03,25,01,50,3.70
2007,03,25,01,55,3.70
2007,03,25,02,00,3.70
2007,03,25,02,05,3.70
2007,03,25,02,10,3.70
2007,03,25,02,15,3.80
2007,03,25,02,20,3.80
2007,03,25,02,25,3.80
2007,03,25,02,30,3.90
2007,03,25,02,35,3.80
2007,03,25,02,40,3.60
2007,03,25,02,45,3.30
2007,03,25,02,50,3.10
2007,03,25,02,55,2.90
2007,03,25,03,00,2.90
2007,03,25,03,05,2.90
2007,03,25,03,10,2.80
2007,03,25,03,15,2.80
2007,03,25,03,20,2.90
2007,03,25,03,25,2.90
2007,03,25,03,30,2.90
2007,03,25,03,35,2.90
2007,03,25,03,40,2.90
2007,03,25,03,45,2.90
2007,03,25,03,50,2.80
2007,03,25,03,55,2.80
2007,03,25,04,00,2.90
2007,03,25,04,05,2.90
2007,03,25,04,10,2.90
2007,03,25,04,15,2.90
2007,03,25,04,20,2.90
2007,03,25,04,25,2.90
2007,03,25,04,30,2.90
2007,03,25,04,35,2.90
2007,03,25,04,40,2.90
2007,03,25,04,45,2.80
2007,03,25,04,50,2.70
2007,03,25,04,55,2.50
2007,03,25,05,00,2.30
2007,03,25,05,05,2.20
2007,03,25,05,10,2.00
2007,03,25,05,15,1.90
2007,03,25,05,20,1.90
2007,03,25,05,25,1.80
2007,03,25,05,30,1.80
2007,03,25,05,35,1.90
2007,03,25,05,40,1.90
2007,03,25,05,45,1.90
2007,03,25,05,50,2.00
2007,03,25,05,55,1.90
2007,03,25,06,00,1.90
2007,03,25,06,05,1.90
2007,03,25,06,10,1.90
2007,03,25,06,15,1.90
2007,03,25,06,20,1.90
2007,03,25,06,25,1.90
2007,03,25,06,30,1.90
2007,03,25,06,35,2.00
2007,03,25,06,40,2.00
2007,03,25,06,45,2.00
2007,03,25,06,50,1.90
2007,03,25,06,55,1.90
2007,03,25,07,00,1.90
2007,03,25,07,05,1.90
2007,03,25,07,10,2.00
2007,03,25,07,15,2.00
2007,03,25,07,20,2.00
2007,03,25,07,25,2.10
2007,03,25,07,30,2.10
2007,03,25,07,35,2.20
2007,03,25,07,40,2.20
2007,03,25,07,45,2.20
2007,03,25,07,50,2.20
2007,03,25,07,55,2.20
2007,03,25,08,00,2.30
2007,03,25,08,05,2.40
2007,03,25,08,10,2.50
2007,03,25,08,15,2.70
2007,03,25,08,20,2.80
2007,03,25,08,25,2.90
2007,03,25,08,30,3.10
2007,03,25,08,35,3.10
2007,03,25,08,40,3.30
2007,03,25,08,45,3.60
2007,03,25,08,50,3.80
2007,03,25,08,55,3.90
2007,03,25,09,00,4.00
2007,03,25,09,05,4.00
2007,03,25,09,10,4.00
2007,03,25,09,15,3.70
2007,03,25,09,20,3.60
2007,03,25,09,25,3.70
2007,03,25,09,30,3.80
2007,03,25,09,35,3.80
2007,03,25,09,40,3.90
2007,03,25,09,45,4.10
2007,03,25,09,50,4.20
2007,03,25,09,55,4.30
2007,03,25,10,00,4.60
2007,03,25,10,05,4.70
2007,03,25,10,10,4.90
2007,03,25,10,15,5.10
2007,03,25,10,20,5.30
2007,03,25,10,25,5.70
2007,03,25,10,30,6.00
2007,03,25,10,35,6.30
2007,03,25,10,40,6.70
2007,03,25,10,45,7.30
2007,03,25,10,50,7.70
2007,03,25,10,55,7.60
2007,03,25,11,00,7.30
2007,03,25,11,05,6.90
2007,03,25,11,10,6.80
2007,03,25,11,15,6.60
2007,03,25,11,20,6.20
2007,03,25,11,25,6.10
2007,03,25,11,30,6.00
2007,03,25,11,35,6.20
2007,03,25,11,40,6.60
2007,03,25,11,45,6.70
2007,03,25,11,50,6.70
2007,03,25,11,55,6.70
2007,03,25,12,00,6.80
2007,03,25,12,05,7.00
2007,03,25,12,10,7.10
2007,03,25,12,15,7.20
2007,03,25,12,20,7.30
2007,03,25,12,25,7.40
2007,03,25,12,30,7.40
2007,03,25,12,35,7.30
2007,03,25,12,40,7.50
2007,03,25,12,45,7.90
2007,03,25,12,50,7.80
2007,03,25,12,55,7.80
2007,03,25,13,00,7.80
2007,03,25,13,05,8.10
2007,03,25,13,10,8.60
2007,03,25,13,15,9.00
2007,03,25,13,20,9.10
2007,03,25,13,25,9.10
2007,03,25,13,30,9.00
2007,03,25,13,35,9.20
2007,03,25,13,40,9.10
2007,03,25,13,45,9.20
2007,03,25,13,50,9.40
2007,03,25,13,55,9.50
2007,03,25,14,00,9.70
2007,03,25,14,05,9.80
2007,03,25,14,10,9.70
2007,03,25,14,15,9.40
2007,03,25,14,20,9.20
2007,03,25,14,25,9.30
2007,03,25,14,30,9.80
2007,03,25,14,35,10.20
2007,03,25,14,40,10.30
2007,03,25,14,45,10.20
2007,03,25,14,50,10.10
2007,03,25,14,55,10.10
2007,03,25,15,00,10.30
2007,03,25,15,05,10.10
2007,03,25,15,10,10.10
2007,03,25,15,15,10.40
2007,03,25,15,20,10.80
2007,03,25,15,25,10.80
2007,03,25,15,30,10.40
2007,03,25,15,35,9.80
2007,03,25,15,40,9.60
2007,03,25,15,45,9.70
2007,03,25,15,50,9.70
2007,03,25,15,55,9.80
2007,03,25,16,00,9.80
2007,03,25,16,05,9.70
2007,03,25,16,10,9.70
2007,03,25,16,15,9.60
2007,03,25,16,20,9.60
2007,03,25,16,25,9.60
2007,03,25,16,30,9.40
2007,03,25,16,35,9.50
2007,03,25,16,40,9.60
2007,03,25,16,45,9.70
2007,03,25,16,50,9.60
2007,03,25,16,55,9.70
2007,03,25,17,00,9.90
2007,03,25,17,05,10.20
2007,03,25,17,10,10.40
2007,03,25,17,15,10.90
2007,03,25,17,20,11.40
2007,03,25,17,25,11.20
2007,03,25,17,30,10.90
2007,03,25,17,35,10.60
2007,03,25,17,40,10.40
2007,03,25,17,45,10.30
2007,03,25,17,50,10.20
2007,03,25,17,55,9.90
2007,03,25,18,00,9.50
2007,03,25,18,05,9.40
2007,03,25,18,10,9.20
2007,03,25,18,15,9.20
2007,03,25,18,20,9.20
2007,03,25,18,25,9.20
2007,03,25,18,30,9.30
2007,03,25,18,35,9.20
2007,03,25,18,40,9.20
2007,03,25,18,45,9.10
2007,03,25,18,50,8.90
2007,03,25,18,55,8.70
2007,03,25,19,00,8.40
2007,03,25,19,05,8.20
2007,03,25,19,10,8.10
2007,03,25,19,15,8.00
2007,03,25,19,20,7.90
2007,03,25,19,25,7.80
2007,03,25,19,30,7.80
2007,03,25,19,35,7.70
2007,03,25,19,40,7.50
2007,03,25,19,45,7.40
2007,03,25,19,50,7.30
2007,03,25,19,55,7.20
2007,03,25,20,00,7.00
2007,03,25,20,05,6.80
2007,03,25,20,10,6.60
2007,03,25,20,15,6.40
2007,03,25,20,20,6.30
2007,03,25,20,25,6.20
2007,03,25,20,30,6.10
2007,03,25,20,35,5.90
2007,03,25,20,40,5.80
2007,03,25,20,45,5.70
2007,03,25,20,50,5.60
2007,03,25,20,55,5.50
2007,03,25,21,00,5.30
2007,03,25,21,05,5.30
2007,03,25,21,10,5.10
2007,03,25,21,15,5.10
2007,03,25,21,20,4.90
2007,03,25,21,25,4.70
2007,03,25,21,30,4.60
2007,03,25,21,35,4.50
2007,03,25,21,40,4.40
2007,03,25,21,45,4.30
2007,03,25,21,50,4.20
2007,03,25,21,55,4.20
2007,03,25,22,00,4.10
2007,03,25,22,05,4.10
2007,03,25,22,10,3.90
2007,03,25,22,15,3.80
2007,03,25,22,20,3.70
2007,03,25,22,25,3.60
2007,03,25,22,30,3.50
2007,03,25,22,35,3.40
2007,03,25,22,40,3.30
2007,03,25,22,45,3.20
2007,03,25,22,50,3.10
2007,03,25,22,55,3.10
2007,03,25,23,00,2.90
2007,03,25,23,05,2.80
2007,03,25,23,10,2.80
2007,03,25,23,15,2.70
2007,03,25,23,20,2.70
2007,03,25,23,25,2.70
2007,03,25,23,30,2.60
2007,03,25,23,35,2.50
2007,03,25,23,40,2.50
2007,03,25,23,45,2.40
2007,03,25,23,50,2.40
